Regional Weather Roundup
Issued by NWS

Home | Current Version | Previous Version | Text Only | Print | Product List | Glossary On
Versions: 1 2 3 4 5 6 7 8 9 10 11 12 13 14 15 16 17 18 19 20 21 22 23 24 25 26 27 28 29 30 31 32 33 34 35 36 37 38 39 40 41 42 43 44 45 46 47 48 49 50
000
ASUS45 KCYS 180310
RWRWY

WYOMING REGIONAL WEATHER ROUNDUP
NATIONAL WEATHER SERVICE CHEYENNE WY
900 PM MDT FRI APR 17 2015

NOTE:  "FAIR" INDICATES FEW OR NO CLOUDS BELOW 12,000 FEET
WITH NO SIGNIFICANT WEATHER AND/OR OBSTRUCTIONS TO VISIBILITY.

WYZ001-180400-
YELLOWSTONE NATIONAL PARK

CITY           SKY/WX    TMP DP  RH WIND       PRES   REMARKS
LK YELLOWSTONE   N/A     32  22  66 CALM      30.14R
W YELLOWSTONE  NOT AVBL

$$
WYZ002>013-054>058-071-098>099-180400-
NORTHERN WYOMING

CITY           SKY/WX    TMP DP  RH WIND       PRES   REMARKS
JACKSON        FAIR      45  18  33 E7        30.05R
CODY           FAIR      48  34  57 SW6       30.07S
GREYBULL       FAIR      54  28  36 S7        30.03S
WORLAND        FAIR      49  31  49 SW5       30.05S
SHERIDAN       FAIR      45  33  63 S3        30.07R
BUFFALO        FAIR      47  37  68 S6        30.11S
GILLETTE       CLOUDY    48  40  73 S16       30.10R
HULETT         MOCLDY    52  34  50 S3        30.12R
NEWCASTLE      LGT RAIN  43  43 100 CALM      30.14R

$$
WYZ014>020-022>026-101>103-180400-
CENTRAL WYOMING

CITY           SKY/WX    TMP DP  RH WIND       PRES   REMARKS
BIG PINEY      FAIR      42  30  62 SW5       30.12R
PINEDALE       FAIR      45  27  49 S9        30.11R
DUBOIS         FAIR      37  23  56 S7        30.13R WCI  32
LANDER         CLOUDY    45  37  73 SE7       30.11R
RIVERTON       CLOUDY    45  36  70 E14       30.13R
CASPER         LGT RAIN  35  34  96 CALM      30.14R
DOUGLAS        CLOUDY    36  36 100 NW5       30.14S WCI  32

$$
WYZ021-027>030-104>119-180400-
SOUTHERN WYOMING

CITY           SKY/WX    TMP DP  RH WIND       PRES   REMARKS
EVANSTON       MOCLDY    39  32  76 NE6       30.12S WCI  35
KEMMERER       FAIR      36  34  93 S6        30.14R WCI  31
FORT BRIDGER   CLEAR     36  36 100 S8        30.16R WCI  29
ROCK SPRINGS   LGT RAIN  35  33  92 NE21      30.10R WCI  24
DIXON          FAIR      38  30  73 NE8       30.04R WCI  32
RAWLINS        FAIR      33  32  96 NE8       30.08S WCI  26
SARATOGA       FAIR      32  32 100 MISG      30.07R
LARAMIE        FAIR      26  25  96 SE8       30.06R WCI  18
CHEYENNE       CLOUDY    34  31  88 N16G25    30.04F WCI  24
TORRINGTON     MOCLDY    42  39  89 NW10      30.06S
PINE BLUFFS    RAIN      37  36  93 N9        30.08R WCI  31

$$


USA.gov is the U.S. government's official web portal to all federal, state and local government web resources and services.